Skip Page Navigation
NASA JPL Caltech
NASA Logo - Jet Propulsion Laboratory + View the NASA Portal
+ Center for Near-Earth Object Studies
JPL Home Earth Solar System Stars & Galaxies Technology
JPL Solar System Dynamics
BODIES ORBITS EPHEMERIDES TOOLS PHYSICAL DATA DISCOVERY FAQ SITE MAP
IMPORTANT: The SSD Announcement email list is now available. Major changes are coming in the near future, including possible hostname and/or URL changes. To be notified of such changes, subscribe to this email list.

Please visit this page for more details.


JPL Small-Body Database Browser
Search: [ help ]  
160715 (2000 QG106)
Classification: Main-belt Asteroid          SPK-ID: 2160715
Ephemeris | Orbit Diagram | Orbital Elements | Mission Design | Physical Parameters | Discovery Circumstances | Close-Approach Data ]

[ show orbit diagram ]
Orbital Elements at Epoch 2458600.5 (2019-Apr-27.0) TDB
Reference: JPL 18 (heliocentric ecliptic J2000)
 Element Value Uncertainty (1-sigma)   Units 
e .2037070505795342 4.2483e-08  
a 3.089333894214737 2.3935e-08 au
q 2.460014798368866 1.32e-07 au
i 12.44304371118747 4.8246e-06 deg
node 141.8702984096477 2.3183e-05 deg
peri 193.0254318285124 2.6304e-05 deg
M 172.0347352771211 1.3384e-05 deg
tp 2457652.716064172222
(2016-Sep-21.21606417)
6.8077e-05 TDB
period 1983.333286434141
5.43
2.3049e-05
6.31e-08
d
yr
n .1815126093341822 2.1094e-09 deg/d
Q 3.718652990060608 2.881e-08 au
  Orbit Determination Parameters
   # obs. used (total)      570  
   data-arc span      7236 days (19.81 yr)  
   first obs. used      1999-05-17  
   last obs. used      2019-03-09  
   planetary ephem.      DE431  
   SB-pert. ephem.      SB431-N16  
   condition code      0  
   norm. resid. RMS      .60493  
   source      ORB  
   producer      Otto Matic  
   solution date      2019-Jul-13 08:39:59  

Additional Information
 Earth MOID = 1.45052 au 
 Jupiter MOID = 1.66247 au 
 T_jup = 3.158 
[ show covariance matrix ]

Ephemeris | Orbit Diagram | Orbital Elements | Mission Design | Physical Parameters | Discovery Circumstances | Close-Approach Data ]

Physical Parameter Table
Parameter Symbol Value Units Sigma Reference Notes
absolute magnitude H 14.8   n/a MPO436810  
diameter diameter 6.075 km 0.039 urn:nasa:pds:neowise_diameters_albedos::2.0[mainbelt] (http://adsabs.harvard.edu/abs/2011ApJ...741...68M)  
geometric albedo albedo 0.069   0.012 urn:nasa:pds:neowise_diameters_albedos::2.0[mainbelt] (http://adsabs.harvard.edu/abs/2011ApJ...741...68M)  

160715 (2000 QG106)          Discovered 2000-Aug-28 by LINEAR at Socorro
Reference: 20070828/Numbers.arcLast Updated: 2007-08-30

[ show close-approach data ]
Ephemeris | Orbit Diagram | Orbital Elements | Mission Design | Physical Parameters | Discovery Circumstances | Close-Approach Data ]
ABOUT SSD CREDITS/AWARDS PRIVACY/COPYRIGHT GLOSSARY LINKS
FirstGov
(server date/time)  
NASA Home Page
Site Manager:   Ryan S. Park
Webmaster  Alan B. Chamberlin